COSMOS 2460 (732)

Last updated on Mon Oct 20 2025 00:03:19 GMT+0000 (Coordinated Universal Time)

1 36402U 10007C 25292.05266286 -.00000037 00000+0 00000+0 0 9997 2 36402 65.5583 322.6211 0002895 243.3944 190.0119 2.13106272121592
UTC large
Height (km)
Speed (km/s)
/
Latitude / Longitude
Inclination (degrees)
Orbital Period (minutes)
Azimuth
Elevation
Range (km)
Doppler Factor

Next 0 passes for location: London (51.5072 / 0.1276)

Sorry there are no passes over London.